Terminal Aerodrome Forecast
Issued by NWS Boise, ID

Home | Current Version | Previous Version | Text Only | Print | Product List | Glossary On
Versions: 1 2 3 4 5 6 7 8 9 10 11 12 13 14 15 16 17 18 19 20 21 22 23 24 25 26 27 28 29 30 31 32 33 34 35 36 37 38
677
FTUS45 KBOI 101122
TAFBNO
TAF
KBNO 101122Z 1012/1112 VRB03KT 1/4SM FZFG VV001
     FM101800 VRB03KT P6SM SCT150
     FM110400 VRB03KT 1/4SM FZFG VV002=

USA.gov is the U.S. government's official web portal to all federal, state and local government web resources and services.